RADUGA 32 1 23448U 94087A 08285.90079609 -.00000035 00000-0 10000-3 0 682 2 23448 009.6699 055.1558 0006056 131.4129 228.6895 01.00270161 68191 RADUGA 1-4 1 25642U 99010A 08282.94068716 -.00000113 00000-0 10000-3 0 1856 2 25642 008.2504 072.7627 0005417 130.1003 230.0501 01.00356257 35206 RADUGA 1-5 1 26477U 00049A 08286.66570325 .00000144 00000-0 10000-3 0 3848 2 26477 005.8911 070.2089 0002146 054.4565 181.6436 01.00281418 29746 RADUGA 1-6 1 26936U 01045A 08285.53603525 -.00000049 00000-0 10000-3 0 7657 2 26936 005.1092 075.3840 0015819 034.1663 326.1451 00.97744322 25466 RADUGA 1-7 1 28194U 04010A 08285.69674279 -.00000179 00000-0 10000-3 0 1648 2 28194 003.1969 090.3463 0003081 125.5667 140.9674 01.00273925 16640